Tracking 18942 objects as of 17-Jan-2018
HD Live streaming from Space Station
objects crossing your sky now

GLOBALSTAR M045

Track GLOBALSTAR M045 now!
10-day predictions
GLOBALSTAR M045 is classified as:


NORAD ID: 25676
Int'l Code: 1999-019A
Perigee: 1,568.6 km
Apogee: 1,570.5 km
Inclination: 52.0 °
Period: 117.4 minutes
Semi major axis: 7940 km
RCS: 2.6523 m2 (large)
Launch date: April 15, 1999
Source: Globalstar (GLOB)
Launch site: TYURATAM MISSILE AND SPACE COMPLEX (TTMTR)
aabbcc
Your satellite tracking list
Your tracking list is empty




NASA's NSSDC Master Catalog

Two Line Element Set (TLE):
1 25676U 99019A   18016.24478032 -.00000120  00000-0 -23732-3 0  9995
2 25676  51.9976 105.3595 0001168 104.0163 284.9471 12.26949251861094
Source of the keplerian elements: AFSPC